Regional Weather Roundup
Issued by NWS Green Bay, WI

Home | Current Version | Previous Version | Text Only | Print | Product List | Glossary On
Versions: 1 2 3 4 5 6 7 8 9 10 11 12 13 14 15 16 17 18 19 20 21 22 23 24 25 26 27 28 29 30 31 32 33 34 35 36 37 38 39 40 41 42 43 44 45 46 47 48 49 50
000
ASUS43 KGRB 281011
RWRGRB

NORTH-CENTRAL AND NORTHEAST WISCONSIN REGIONAL WEATHER ROUNDUP
NATIONAL WEATHER SERVICE GREEN BAY WI
500 AM CDT SAT MAY 28 2016

WIZ005-009-010>012-018-019-281100-
NORTH CENTRAL WISCONSIN

CITY           SKY/WX    TMP DP  RH WIND       PRES   REMARKS
IRONWOOD       PTCLDY    63  63 100 CALM      29.74S
MANITOWISH WTR NOT AVBL
ARBOR VITAE    CLOUDY    65  64  94 S3        29.79S
EAGLE RIVER      N/A     64  64  99 S6        29.80R FOG
LAND O LAKES   CLOUDY    64  64  99 S5        29.81S FOG
RHINELANDER    CLOUDY    66  64  93 CALM      29.80S
PHILLIPS       CLOUDY    64  64 100 CALM      29.77S
ANTIGO         FOG       65  65 100 S7        29.81S VSB 1
TOMAHAWK       CLOUDY    65  63  96 CALM      29.79F FOG
MERRILL        CLOUDY    66  66 100 CALM      29.79F FOG
$$

WIZ013-073-281100-
NORTHEAST WISCONSIN

CITY           SKY/WX    TMP DP  RH WIND       PRES   REMARKS
IRON MOUNTAIN  FOG       62  61  96 SE3       29.81R VSB 1/2
MARINETTE      CLOUDY    61  59  94 CALM      29.83R
OCONTO         CLOUDY   N/A N/A N/A S5        29.81S
$$

WIZ017-030-035>037-045-281100-
CENTRAL WISCONSIN

CITY           SKY/WX    TMP DP  RH WIND       PRES   REMARKS
MEDFORD        CLOUDY    65  65 100 CALM      29.77F
WAUSAU         CLOUDY    69  66  90 SE5       29.76F FOG
MOSINEE        CLOUDY    64  64 100 S6        29.79F FOG
MARSHFIELD     CLOUDY    68  65  90 CALM      29.76F FOG
WISC RAPIDS    CLOUDY    68  65  90 SE5       29.77F FOG
STEVENS POINT  CLOUDY    66  65  97 SE5       29.78F FOG
WAUPACA        CLOUDY    69  69 100 SE7       29.79F
SHAWANO        CLOUDY    67  66  95 CALM      29.80S FOG
CLINTONVILLE   CLOUDY    68  66  94 S6        29.80S FOG
WAUTOMA        LGT RAIN  68  66  93 SE7       29.79S
$$

WIZ038-039-048-051-281100-
FOX VALLEY

CITY           SKY/WX    TMP DP  RH WIND       PRES   REMARKS
NWS GREEN BAY  CLOUDY    68  65  90 S7        29.81S
APPLETON       RAIN      66  66 100 S8        29.80S
OSHKOSH        LGT RAIN  68  64  87 S12       29.80S
FOND DU LAC    CLOUDY    68  65  90 S8        29.81S
$$

WIZ022-050-052-281100-
EAST CENTRAL WISCONSIN

CITY           SKY/WX    TMP DP  RH WIND       PRES   REMARKS
EPHRAIM        LGT RAIN  57  57 100 S10       29.83S
STURGEON BAY   NOT AVBL
MANITOWOC      LGT RAIN  57  56  96 E5        29.84S FOG
SHEBOYGAN      CLOUDY    65  62  90 SE6       29.84R
$$

LMZ563-521-522-541>543-281100-
LAKESHORE

STATION/POSITION TIME  TEMP    WIND        PRES    VSBY  WAVE
                       AIR SEA DIR/SP/G                  HT/PER
                 (UTC) (F)     (DEG/KT/KT) (MB)    (MI)  (FT/S)
SHEBOYGAN LKSHOR 1000   54     170/ 14/ 15 1011.1R
KEWAUNEE LKSHORE 0900   53     170/ 12/ 15 1009.5R
ALGOMA MARINA    0917          200/  6/  7   N/A
NORTHPORT PIER   0900   56     160/  9/ 14 1010.2R
N MID LAKE BUOY  0950   54 46  180/ 12/ 14 1010.6R         1
SISTER BAY LKSHO 0950   57     170/ 14/ 18   N/A
CHAMBERS ISLAND  0900   59     140/  4/  9 1009.8R
MENOMINEE LKSHOR 0900   58     160/  8/  9 1008.5R
$$




USA.gov is the U.S. government's official web portal to all federal, state and local government web resources and services.